Weather History for Andalusia, AL

Change the Weather History Date:

Wednesday, November 21, 2012

  Actual Average (KCEW) Record (KCEW)
Temperature  
Mean Temperature 62 °F -  
Max Temperature 77 °F 69 °F 82 °F (2011)
Min Temperature 46 °F 44 °F 23 °F (2000)
Degree Days  
Heating Degree Days 4    
Growing Degree Days 12 (Base 50)    
Moisture  
Dew Point 45 °F    
Average Humidity 63    
Maximum Humidity 83    
Minimum Humidity 33    
Precipitation  
Precipitation 0.00 in - - ()
Sea Level Pressure  
Sea Level Pressure 30.13 in    
Wind  
Wind Speed 3 mph (North)    
Max Wind Speed 13 mph    
Max Gust Speed 17 mph    
Visibility 9 miles    
Events      
Averages and records for this station are not official NWS values.
T = Trace of Precipitation, MM = Missing Value Source: NWS Daily Summary

Daily Weather History Graph

Daily Weather History Graph

Search for Another Location

Airport:

Trip Planner

Search our weather history database for the weather conditions in past years. The results will help you decide how hot, cold, wet, or windy it might be!

Date:

Astronomy

Nov. 21, 2012 Rise Set
Actual Time 6:18 AM CST 4:44 PM CST
Civil Twilight 5:52 AM CST 5:10 PM CST
Nautical Twilight 5:23 AM CST 5:39 PM CST
Astronomical Twilight 4:53 AM CST 6:08 PM CST
Moon 12:39 PM CST (11/21) 12:00 AM CST (11/21)
Length of Visible Light 11h 17m
Length of Day
10h 25m
First Quarter, 62% of the Moon is Illuminated
Nov 21
First Quarter
Nov 28
Full
Dec 6
Last Quarter
Dec 13
New
Dec 19
First Quarter

Hourly Weather History & Observations

Time (CST) Temp. Windchill Dew Point Humidity Pressure Visibility Wind Dir Wind Speed Gust Speed Precip Events Conditions
12:56 AM 48.9 °F - 44.1 °F 83% 30.12 in 8.0 mi North 3.5 mph - N/A   Clear
1:56 AM 48.9 °F - 42.1 °F 77% 30.12 in 10.0 mi Calm Calm - N/A   Clear
2:56 AM 48.0 °F - 42.1 °F 80% 30.11 in 10.0 mi Calm Calm - N/A   Clear
3:56 AM 50.0 °F - 43.0 °F 77% 30.12 in 10.0 mi NNW 3.5 mph - N/A   Clear
4:56 AM 46.0 °F - 39.9 °F 79% 30.12 in 9.0 mi Calm Calm - N/A   Clear
5:56 AM 46.0 °F 44.8 °F 41.0 °F 83% 30.13 in 10.0 mi NNW 3.5 mph - N/A   Clear
6:56 AM 48.0 °F - 42.1 °F 80% 30.15 in 9.0 mi NW 3.5 mph - N/A   Partly Cloudy
7:56 AM 55.9 °F - 46.9 °F 72% 30.17 in 10.0 mi NNW 4.6 mph - N/A   Clear
8:56 AM 63.0 °F - 48.0 °F 58% 30.17 in 10.0 mi North 5.8 mph - N/A   Clear
9:56 AM 69.1 °F - 46.9 °F 45% 30.17 in 10.0 mi North 9.2 mph - N/A   Clear
10:56 AM 72.0 °F - 46.9 °F 41% 30.15 in 10.0 mi Variable 4.6 mph - N/A   Clear
11:56 AM 73.9 °F - 46.9 °F 38% 30.12 in 10.0 mi NE 5.8 mph - N/A   Clear
12:56 PM 75.9 °F - 45.0 °F 33% 30.10 in 10.0 mi NNE 12.7 mph 17.3 mph N/A   Clear
1:56 PM 77.0 °F - 46.0 °F 33% 30.09 in 10.0 mi North 6.9 mph 16.1 mph N/A   Partly Cloudy
2:56 PM 75.9 °F - 46.0 °F 35% 30.09 in 10.0 mi North 11.5 mph - N/A   Scattered Clouds
3:56 PM 73.0 °F - 45.0 °F 37% 30.10 in 10.0 mi North 8.1 mph - N/A   Clear
4:56 PM 68.0 °F - 46.0 °F 45% 30.11 in 10.0 mi Calm Calm - N/A   Clear
5:56 PM 61.0 °F - 48.0 °F 62% 30.12 in 10.0 mi Calm Calm - N/A   Clear
6:56 PM 57.0 °F - 48.0 °F 72% 30.14 in 7.0 mi Calm Calm - N/A   Clear
7:56 PM 55.0 °F - 46.9 °F 74% 30.15 in 8.0 mi Calm Calm - N/A   Clear
8:56 PM 54.0 °F - 46.9 °F 77% 30.16 in 8.0 mi Calm Calm - N/A   Clear
9:56 PM 52.0 °F - 46.0 °F 80% 30.17 in 7.0 mi Calm Calm - N/A   Clear
10:56 PM 51.1 °F - 45.0 °F 80% 30.17 in 8.0 mi Calm Calm - N/A   Clear
11:56 PM 50.0 °F - 44.1 °F 80% 30.16 in 7.0 mi Calm Calm - N/A   Clear